WetterOnline ( https://www.wetteronline.de )

Wetter aktuell Föhren

Aktuelles Wetter: Trier/Petrisberg (273m)

6-stündlich | Neueste Meldungen
Ortszeit Temperatur Wetter
Do, 23.05. 8:00 9.1° C leicht bewölkt
Do, 23.05. 2:00 8.4° C wolkig
Mi, 22.05. 20:00 18.4° C leicht bewölkt
Mi, 22.05. 14:00 16.8° C leicht bewölkt
Mi, 22.05. 8:00 9.3° C bedeckt
Mi, 22.05. 2:00 9.3° C wolkig
Di, 21.05. 20:00 11.6° C leichter Regen
Di, 21.05. 14:00 11.7° C Sprühregen
Ortszeit Temperatur Wetter
Do, 23.05. 9:00 12.2° C leicht bewölkt
Do, 23.05. 8:50 12.2° C leicht bewölkt
Do, 23.05. 8:40 12.1° C wolkig
Do, 23.05. 8:30 11.7° C wolkig
Do, 23.05. 8:20 11.7° C wolkig
Do, 23.05. 8:10 9.9° C leicht bewölkt
Do, 23.05. 8:00 9.1° C leicht bewölkt
Do, 23.05. 7:30 7.7° C wolkig
Do, 23.05. 7:00 7.0° C wolkig
Do, 23.05. 6:30 6.5° C wolkig
Do, 23.05. 6:00 6.8° C wolkig
Ortszeit Relative Feuchte Sichtweite
Do, 23.05. 8:00 87% 28 km
Do, 23.05. 2:00 86% 55 km
Mi, 22.05. 20:00 39% 70 km
Mi, 22.05. 14:00 46% 40 km
Mi, 22.05. 8:00 86% 28 km
Mi, 22.05. 2:00 89% 30 km
Di, 21.05. 20:00 94% 8 km
Di, 21.05. 14:00 89% 13 km
Ortszeit Relative Feuchte Sichtweite
Do, 23.05. 9:00 75% 40 km
Do, 23.05. 8:50 75% -
Do, 23.05. 8:40 78% -
Do, 23.05. 8:30 79% 35 km
Do, 23.05. 8:20 79% -
Do, 23.05. 8:10 84% -
Do, 23.05. 8:00 87% 28 km
Do, 23.05. 7:30 94% 26 km
Do, 23.05. 7:00 95% 21 km
Do, 23.05. 6:30 95% 23 km
Do, 23.05. 6:00 93% 27 km
Ortszeit Niederschlagsmenge Niederschlagsart
Do, 23.05. 8:00 0.0 l/m2 in 12 Std. -
Do, 23.05. 2:00 0.0 l/m2 in 6 Std. -
Mi, 22.05. 20:00 0.0 l/m2 in 12 Std. -
Mi, 22.05. 14:00 0.0 l/m2 in 6 Std. -
Mi, 22.05. 8:00 0.1 l/m2 in 12 Std. -
Mi, 22.05. 2:00 0.1 l/m2 in 6 Std. Regen
Di, 21.05. 20:00 4 l/m2 in 12 Std. Regen
Di, 21.05. 14:00 2 l/m2 in 6 Std. Regen
Ortszeit Niederschlagsmenge Niederschlagsart
Do, 23.05. 9:00 0.0 l/m2 in 1 Std. -
Do, 23.05. 8:50 keine Meldung -
Do, 23.05. 8:40 keine Meldung -
Do, 23.05. 8:30 0.0 l/m2 in 1 Std. -
Do, 23.05. 8:20 keine Meldung -
Do, 23.05. 8:10 keine Meldung -
Do, 23.05. 8:00 0.0 l/m2 in 1 Std. -
Do, 23.05. 7:30 0.0 l/m2 in 1 Std. -
Do, 23.05. 7:00 0.0 l/m2 in 1 Std. -
Do, 23.05. 6:30 0.0 l/m2 in 1 Std. -
Do, 23.05. 6:00 0.0 l/m2 in 1 Std. -
Ortszeit Stärke Spitze Richtung
km/h Bft. km/h Grad Sektor
Do, 23.05. 8:00 4 1 11 40° NO
Do, 23.05. 2:00 4 1 14 30° NO
Mi, 22.05. 20:00 7 2 25 340° N
Mi, 22.05. 14:00 9 2 19 290° W
Mi, 22.05. 8:00 7 2 14 300° NW
Mi, 22.05. 2:00 6 1 20 280° W
Di, 21.05. 20:00 4 1 25 360° N
Di, 21.05. 14:00 7 2 30 360° N
Ortszeit Stärke Spitze Richtung
km/h Bft. km/h Grad Sektor
Do, 23.05. 9:00 2 1 6 20° N
Do, 23.05. 8:50 2 1 - 20° N
Do, 23.05. 8:40 4 1 - 20° N
Do, 23.05. 8:30 4 1 7 20° N
Do, 23.05. 8:20 4 1 - 20° N
Do, 23.05. 8:10 4 1 - 30° NO
Do, 23.05. 8:00 4 1 11 40° NO
Do, 23.05. 7:30 0 0 11 - -
Do, 23.05. 7:00 7 2 11 10° N
Do, 23.05. 6:30 7 2 11 20° N
Do, 23.05. 6:00 6 1 9 30° NO
Ortszeit Untergrenze Bedeckung Gattung
total tief tief mittel hoch
Do, 23.05. 8:00 9000 m 8/8 0/8 - - -
Do, 23.05. 2:00 5400 m 8/8 2/8 - - -
Mi, 22.05. 20:00 1800 m 2/8 2/8 - - -
Mi, 22.05. 14:00 1290 m 3/8 3/8 - - -
Mi, 22.05. 8:00 330 m 8/8 8/8 - - -
Mi, 22.05. 2:00 540 m 8/8 1/8 - - -
Di, 21.05. 20:00 1170 m 8/8 8/8 - - -
Di, 21.05. 14:00 510 m 8/8 8/8 - - -
Ortszeit Bedeckungsgrad in Achtel und Wolkenuntergrenze
Do, 23.05. 9:00 6(9000m)
Do, 23.05. 8:50 6(9000m)
Do, 23.05. 8:40 7(9000m)
Do, 23.05. 8:30 7(9000m) 7(10500m)
Do, 23.05. 8:20 7(9000m) 7(10500m)
Do, 23.05. 8:10 6(9000m) 6(10500m)
Do, 23.05. 8:00 8(9000m) 8(10500m)
Do, 23.05. 7:30 7(9000m) 8(10500m)
Do, 23.05. 7:00 7(9000m) 8(10500m)
Do, 23.05. 6:30 1(9000m) 8(10500m) 8(10500m)
Do, 23.05. 6:00 5(8700m) 8(10500m) 8(10500m)
Ortszeit Luftdruck NN (hPa) Tendenz (hPa in 3 Std.)
Do, 23.05. 8:00 1021 + 0,1
Do, 23.05. 2:00 1021 + 0,2
Mi, 22.05. 20:00 1019 - 0,1
Mi, 22.05. 14:00 1020 - 0,2
Mi, 22.05. 8:00 1020 + 0,6
Mi, 22.05. 2:00 1019 + 0,5
Di, 21.05. 20:00 1017 + 0,9
Di, 21.05. 14:00 1014 + 1,6
Ortszeit Luftdruck NN (hPa) Tendenz (hPa in 3 Std.)
Do, 23.05. 9:00 1021 + 0,5
Do, 23.05. 8:50 1021 keine Meldung
Do, 23.05. 8:40 1021 keine Meldung
Do, 23.05. 8:30 1021 + 0,3
Do, 23.05. 8:20 1021 keine Meldung
Do, 23.05. 8:10 1021 keine Meldung
Do, 23.05. 8:00 1021 + 0,1
Do, 23.05. 7:30 1021 - 0,2
Do, 23.05. 7:00 1021 0,0
Do, 23.05. 6:30 1021 - 0,2
Do, 23.05. 6:00 1021 - 0,4
Ortszeit Schneehöhe (cm)
Do, 23.05. 8:00 -
Do, 23.05. 2:00 -
Mi, 22.05. 20:00 -
Mi, 22.05. 14:00 -
Mi, 22.05. 8:00 -
Mi, 22.05. 2:00 -
Di, 21.05. 20:00 -
Di, 21.05. 14:00 -
Ortszeit Schneehöhe (cm)
Do, 23.05. 9:00 -
Do, 23.05. 8:50 -
Do, 23.05. 8:40 -
Do, 23.05. 8:30 -
Do, 23.05. 8:20 -
Do, 23.05. 8:10 -
Do, 23.05. 8:00 -
Do, 23.05. 7:30 -
Do, 23.05. 7:00 -
Do, 23.05. 6:30 -
Do, 23.05. 6:00 -
Link zu dieser Seite / Seite empfehlen

Das Wetter in ...